Regional Weather Roundup
Issued by NWS Mt. Holly, NJ

Home | Current Version | Previous Version | Text Only | Print | Product List | Glossary On
Versions: 1 2 3 4 5 6 7 8 9 10 11 12 13 14 15 16 17 18 19 20 21 22 23 24 25 26 27 28 29 30 31 32 33 34 35 36 37 38 39 40 41 42 43 44 45 46 47 48 49 50
000
ASUS41 KPHI 271210
RWRPHI

REGIONAL WEATHER ROUNDUP
NATIONAL WEATHER SERVICE MOUNT HOLLY NJ
700 AM EST TUE JAN 27 2015

NOTE:  "FAIR" INDICATES FEW OR NO CLOUDS BELOW 12,000 FEET WITH NO
SIGNIFICANT WEATHER AND/OR OBSTRUCTIONS TO VISIBILITY.

 * = STATION DOES NOT REPORT PRECIPITATION (E.G. RAIN, SNOW, ETC.)
        OR FOG.

NJZ015>026-271300-
SOUTHERN NEW JERSEY

CITY           SKY/WX    TMP DP  RH WIND       PRES   REMARKS
POMONA         LGT SNOW  23  20  88 N20G28    29.66R FOG     WCI   8
6HR MIN TEMP:  23; 6HR MAX TEMP:  28; 6HR PCP:  0.03;

RIO GRANDE*    CLOUDY    27  19  74 N13       29.69R WCI  16
MILLVILLE      LGT SNOW  26  20  77 N17G28    29.70R WCI  13
WRIGHTSTOWN    LGT SNOW  23  19  86 N18G25    29.67R FOG     WCI   9
MOUNT HOLLY    LGT SNOW  24  20  84 NW10      29.71R FOG     WCI  14
TRENTON        LGT SNOW  24  19  81 N13       29.69S WCI  12
6HR MIN TEMP:  23; 6HR MAX TEMP:  24; 6HR PCP: TRACE;


$$
NJZ001>014-271300-
NORTHERN NEW JERSEY

CITY           SKY/WX    TMP DP  RH WIND       PRES   REMARKS
SUSSEX         LGT SNOW  22  17  81 NW5       29.70S WCI  16
ANDOVER*         N/A     21  17  84 VRB6      29.70S WCI  13
MORRISTOWN     LGT SNOW  23  16  74 N8G25     29.70R WCI  14
NEWARK         FLURRIES  22  15  75 N17G24    29.69R WCI   8
TETERBORO      FLURRIES  22  12  65 N15G24    29.68R WCI   9
CALDWELL       LGT SNOW  21  13  71 N9G22     29.70R WCI  11
SOMERVILLE     LGT SNOW  24  19  81 NW8       29.70R WCI  15
ALLAIRE*       CLOUDY    21  12  68 NW20G25   29.65R WCI   6
TOMS RIVER*    CLOUDY    21  18  86 N15G25    29.66S WCI   8

$$
PAZ043-044-047-054-055-060>062-066>071-271300-
EASTERN PENNSYLVANIA

CITY           SKY/WX    TMP DP  RH WIND       PRES   REMARKS
PHILADELPHIA   FLURRIES  26  21  81 N14       29.73S WCI  14
6HR MIN TEMP:  25; 6HR MAX TEMP:  28; 6HR PCP:  0.01;

NORTH PHILA    LGT SNOW  27  19  72 NW14      29.73R WCI  16
BLUE BELL      CLOUDY    27  23  86 NW5       29.72R WCI  21
DOYLESTOWN     LGT SNOW  22  21  96 NW7       29.70S FOG     WCI  13
POTTSTOWN      FLURRIES  25  19  78 NW10      29.74S WCI  15
LANCASTER      FLURRIES  25  20  81 NW12      29.75R WCI  14
COATESVILLE    LGT SNOW  27  23  86 NW8       29.72R WCI  18
READING        LGT SNOW  26  20  77 NW8       29.75R WCI  18
6HR MIN TEMP:  26; 6HR MAX TEMP:  27; 6HR PCP: TRACE;

ALLENTOWN      CLOUDY    24  16  71 NW9       29.74R WCI  14
6HR MIN TEMP:  24; 6HR MAX TEMP:  26; 6HR PCP: TRACE;

MOUNT POCONO   LGT SNOW  15  10  80 NW17      29.63R WCI  -1
6HR MIN TEMP:  15; 6HR MAX TEMP:  20; 6HR PCP: TRACE;

HAZLETON       CLOUDY    18  14  86 NW12G18   29.72S WCI   5
WILKES BARRE   LGT SNOW  18  12  77 N6        29.76R WCI  10

$$
DEZALL-MDZ008-012-015-019-020-271300-
DELAWARE AND EASTERN MARYLAND

CITY           SKY/WX    TMP DP  RH WIND       PRES   REMARKS
WILMINGTON     CLOUDY    28  20  71 NW9       29.74R WCI  19
6HR MIN TEMP:  27; 6HR MAX TEMP:  28;

DOVER          FLURRIES  28  24  85 N22G28    29.72R WCI  13
GEORGETOWN     CLOUDY    28  20  71 N8G18     29.71R WCI  20
6HR MIN TEMP:  28; 6HR MAX TEMP:  31; 6HR PCP: TRACE;

PATUXENT       LGT SNOW  29  24  82 NW16      29.74R WCI  17
OCEAN CITY     CLOUDY    28  22  78 N17       29.68R WCI  16
WALLOPS ISLAND CLOUDY    28  24  85 N12       29.71R WCI  18
CAMBRIDGE      CLOUDY    32  25  74 N14G21    29.73R WCI  22
SALISBURY      CLOUDY    30  22  72 N13G22    29.71R WCI  20

$$
PAZ001-021-NYZ056-072-MDZ011-DCZ001-271300-
OTHER NEARBY LOCATIONS

CITY           SKY/WX    TMP DP  RH WIND       PRES   REMARKS
HARRISBURG     FLURRIES  26  20  77 NW13      29.77S WCI  15
STATE COLLEGE  LGT SNOW  19  16  86 N8        29.81R FOG     WCI   9
WILLIAMSPORT   CLOUDY    21  13  71 W7        29.83R WCI  12
BINGHAMTON     MOCLDY    13   6  74 N12       29.74S WCI  -1
NEW YORK CITY  CLOUDY    22  12  65 MISG      29.68R
BALTIMORE      FLURRIES  28  22  78 N9        29.76R WCI  19
WASHINGTON DC  CLOUDY    31  22  69 N14       29.79R WCI  21

$$



USA.gov is the U.S. government's official web portal to all federal, state and local government web resources and services.